Tracking 20945 objects as of 8-Jul-2020
HD Live streaming from Space Station
objects crossing your sky now

COSMOS 1541

Track COSMOS 1541 now!
COSMOS 1541 is classified as:


NORAD ID: 14790
Int'l Code: 1984-024A
Perigee: 7,644.3 km
Apogee: 32,758.2 km
Inclination: 71.6 °
Period: 718.5 minutes
Semi major axis: 26572 km
RCS: 7.9433 m2 (large)
Launch date: March 6, 1984
Source: Commonwealth of Independent States (former USSR) (CIS)
Launch site: PLESETSK MISSILE AND SPACE COMPLEX (PKMTR)
aabbcc
Your satellite tracking list
Your tracking list is empty




NASA's NSSDC Master Catalog

Two Line Element Set (TLE):
1 14790U 84024A   20189.28746948  .00000093  00000-0  00000+0 0  9998
2 14790  71.5658 232.8111 4725571  44.9520   1.6348  2.00428851238395
Source of the keplerian elements: AFSPC